| time (UTC) | temp C | wind direction | speed KPH | gust KPH | rain 1hr cm | rain 24hr cm | rain mn cm | humidity % | barometer mb |
| 20260506191553 | 15 | 190 | 3.2 | 16.1 | 0.03 | 0.30 | 0.30 | 93 | 1007.5 |
| 20260506190053 | 15 | 290 | 1.6 | 16.1 | 0.03 | 0.30 | 0.30 | 93 | 1007.6 |
| 20260506184602 | 16 | 166 | 3.2 | 16.1 | 0.03 | 0.28 | 0.28 | 92 | 1007.6 |
| 20260506183101 | 16 | 259 | 4.8 | 12.9 | 0.03 | 0.28 | 0.28 | 92 | 1007.5 |
| 20260506181610 | 16 | 138 | 3.2 | 12.9 | 0.03 | 0.28 | 0.28 | 92 | 1007.7 |
| 20260506180100 | 16 | 336 | 3.2 | 16.1 | 0.03 | 0.28 | 0.28 | 92 | 1007.7 |
| 20260506174611 | 16 | 184 | 4.8 | 19.3 | 0.03 | 0.25 | 0.25 | 91 | 1008.0 |
| 20260506173059 | 16 | 258 | 4.8 | 19.3 | 0.05 | 0.25 | 0.25 | 91 | 1008.2 |
| 20260506171606 | 16 | 202 | 1.6 | 17.7 | 0.10 | 0.25 | 0.25 | 92 | 1008.2 |
| 20260506170104 | 16 | 261 | 1.6 | 16.1 | 0.15 | 0.25 | 0.25 | 92 | 1008.3 |
| 20260506164606 | 16 | 220 | 4.8 | 11.3 | 0.20 | 0.23 | 0.23 | 91 | 1008.1 |
| 20260506163131 | 16 | 128 | 3.2 | 14.5 | 0.20 | 0.20 | 0.20 | 91 | 1008.3 |
| 20260506161602 | 16 | 182 | 4.8 | 11.3 | 0.15 | 0.15 | 0.15 | 91 | 1008.9 |
| 20260506160108 | 16 | 124 | 0.0 | 4.8 | 0.10 | 0.10 | 0.10 | 91 | 1009.2 |
| 20260506154558 | 16 | 344 | 1.6 | 9.7 | 0.03 | 0.03 | 0.03 | 89 | 1009.5 |
| 20260506153134 | 17 | 222 | 3.2 | 9.7 | 0.00 | 0.00 | 0.00 | 88 | 1009.6 |
| 20260506151555 | 17 | 0 | 1.6 | 11.3 | 0.00 | 0.00 | 0.00 | 87 | 1009.2 |
| 20260506150052 | 17 | 194 | 1.6 | 11.3 | 0.00 | 0.00 | 0.00 | 83 | 1009.3 |
| 20260506144552 | 18 | 211 | 1.6 | 12.9 | 0.00 | 0.00 | 0.00 | 80 | 1009.4 |
| 20260506143053 | 18 | 199 | 4.8 | 22.5 | 0.00 | 0.00 | 0.00 | 76 | 1009.6 |
| 20260506141554 | 19 | 292 | 3.2 | 12.9 | 0.00 | 0.00 | 0.00 | 75 | 1009.3 |
| 20260506140053 | 18 | 216 | 1.6 | 19.3 | 0.00 | 0.00 | 0.00 | 77 | 1009.4 |
| 20260506134600 | 18 | 142 | 1.6 | 19.3 | 0.00 | 0.00 | 0.00 | 78 | 1009.3 |
| 20260506133056 | 18 | 200 | 4.8 | 17.7 | 0.00 | 0.00 | 0.00 | 77 | 1009.4 |
| 20260506131551 | 18 | 193 | 4.8 | 25.7 | 0.00 | 0.00 | 0.00 | 78 | 1009.8 |
| 20260506130050 | 18 | 307 | 3.2 | 16.1 | 0.00 | 0.00 | 0.00 | 78 | 1009.7 |
| 20260506124549 | 18 | 294 | 4.8 | 12.9 | 0.00 | 0.00 | 0.00 | 78 | 1009.7 |
| 20260506123107 | 18 | 0 | 6.4 | 19.3 | 0.00 | 0.00 | 0.00 | 78 | 1009.3 |
| 20260506121608 | 18 | 151 | 4.8 | 22.5 | 0.00 | 0.00 | 0.00 | 78 | 1009.2 |
| 20260506120053 | 17 | 340 | 6.4 | 16.1 | 0.00 | 0.00 | 0.00 | 79 | 1009.3 |
| 20260506114552 | 17 | 190 | 4.8 | 22.5 | 0.00 | 0.00 | 0.00 | 79 | 1009.2 |
| 20260506113056 | 17 | 103 | 3.2 | 12.9 | 0.00 | 0.00 | 0.00 | 79 | 1009.4 |
| 20260506111548 | 17 | 309 | 3.2 | 19.3 | 0.00 | 0.00 | 0.00 | 79 | 1009.4 |
| 20260506104550 | 17 | 145 | 3.2 | 16.1 | 0.00 | 0.00 | 0.00 | 80 | 1009.1 |
| 20260506103049 | 17 | 220 | 3.2 | 12.9 | 0.00 | 0.00 | 0.00 | 80 | 1009.0 |
| 20260506101605 | 17 | 0 | 3.2 | 9.7 | 0.00 | 0.00 | 0.00 | 80 | 1009.0 |
| 20260506100050 | 17 | 208 | 1.6 | 14.5 | 0.00 | 0.00 | 0.00 | 81 | 1009.0 |
| 20260506094553 | 17 | 113 | 0.0 | 14.5 | 0.00 | 0.03 | 0.00 | 81 | 1008.8 |
| 20260506093055 | 17 | 226 | 3.2 | 12.9 | 0.00 | 0.03 | 0.00 | 81 | 1008.8 |
| 20260506091552 | 17 | 267 | 1.6 | 17.7 | 0.00 | 0.03 | 0.00 | 80 | 1008.9 |
| 20260506090107 | 17 | 214 | 3.2 | 17.7 | 0.00 | 0.03 | 0.00 | 80 | 1009.1 |
| 20260506084616 | 17 | 0 | 3.2 | 16.1 | 0.00 | 0.03 | 0.00 | 80 | 1009.1 |
| 20260506083055 | 17 | 190 | 4.8 | 12.9 | 0.00 | 0.03 | 0.00 | 80 | 1009.1 |
| 20260506081603 | 17 | 158 | 4.8 | 16.1 | 0.00 | 0.03 | 0.00 | 80 | 1009.0 |
| 20260506073050 | 18 | 225 | 1.6 | 14.5 | 0.00 | 0.03 | 0.00 | 77 | 1009.4 |
| 20260506071552 | 18 | 236 | 1.6 | 11.3 | 0.00 | 0.03 | 0.00 | 76 | 1009.4 |
| 20260506061552 | 18 | 172 | 1.6 | 6.4 | 0.00 | 0.03 | 0.00 | 72 | 1009.9 |
| 20260506050113 | 19 | 188 | 1.6 | 14.5 | 0.00 | 0.03 | 0.00 | 68 | 1010.4 |
| 20260506044548 | 19 | 190 | 0.0 | 12.9 | 0.00 | 0.03 | 0.00 | 68 | 1010.5 |
| 20260506043050 | 19 | 192 | 1.6 | 17.7 | 0.00 | 0.03 | 0.00 | 67 | 1010.4 |
| 20260506041601 | 19 | 161 | 3.2 | 14.5 | 0.00 | 0.03 | 0.00 | 67 | 1010.3 |
| 20260506040049 | 19 | 169 | 3.2 | 14.5 | 0.00 | 0.03 | 0.00 | 67 | 1010.4 |
| 20260506034553 | 19 | 265 | 1.6 | 16.1 | 0.00 | 0.03 | 0.03 | 66 | 1010.4 |
| 20260506033053 | 19 | 192 | 1.6 | 17.7 | 0.00 | 0.03 | 0.03 | 66 | 1010.2 |
| 20260506031552 | 20 | 178 | 4.8 | 16.1 | 0.00 | 0.03 | 0.03 | 65 | 1010.1 |
| 20260506030051 | 20 | 151 | 3.2 | 19.3 | 0.00 | 0.03 | 0.03 | 64 | 1010.3 |
| 20260506024556 | 20 | 171 | 3.2 | 16.1 | 0.00 | 0.03 | 0.03 | 62 | 1010.2 |
| 20260506023105 | 21 | 186 | 1.6 | 20.9 | 0.00 | 0.03 | 0.03 | 59 | 1010.0 |
| 20260506021552 | 21 | 105 | 3.2 | 9.7 | 0.00 | 0.03 | 0.03 | 56 | 1009.9 |
| 20260506020056 | 21 | 205 | 4.8 | 12.9 | 0.00 | 0.03 | 0.03 | 54 | 1009.8 |
| 20260506014552 | 22 | 0 | 3.2 | 14.5 | 0.00 | 0.03 | 0.03 | 52 | 1009.9 |
| 20260506013056 | 22 | 232 | 1.6 | 17.7 | 0.00 | 0.03 | 0.03 | 51 | 1009.7 |
| 20260506011549 | 22 | 173 | 3.2 | 17.7 | 0.00 | 0.03 | 0.03 | 50 | 1009.6 |
| 20260506010051 | 22 | 17 | 4.8 | 17.7 | 0.00 | 0.03 | 0.03 | 50 | 1009.4 |
| 20260506004557 | 22 | 238 | 4.8 | 19.3 | 0.00 | 0.03 | 0.03 | 51 | 1009.1 |
| 20260506003053 | 22 | 219 | 1.6 | 11.3 | 0.00 | 0.03 | 0.03 | 50 | 1009.1 |
| 20260506001600 | 23 | 317 | 3.2 | 20.9 | 0.00 | 0.03 | 0.03 | 49 | 1009.0 |
| 20260506000057 | 23 | 240 | 4.8 | 11.3 | 0.00 | 0.03 | 0.03 | 47 | 1009.0 |
| 20260505234558 | 23 | 184 | 3.2 | 12.9 | 0.00 | 0.03 | 0.03 | 44 | 1008.8 |
| 20260505233059 | 24 | 219 | 1.6 | 22.5 | 0.00 | 0.03 | 0.03 | 43 | 1008.7 |
| 20260505231558 | 25 | 252 | 4.8 | 22.5 | 0.00 | 0.03 | 0.03 | 41 | 1008.6 |
| 20260505230120 | 25 | 194 | 6.4 | 16.1 | 0.00 | 0.03 | 0.03 | 40 | 1008.8 |
| 20260505224602 | 25 | 232 | 4.8 | 25.7 | 0.00 | 0.03 | 0.03 | 40 | 1008.5 |
| 20260505223058 | 25 | 188 | 3.2 | 16.1 | 0.00 | 0.03 | 0.03 | 39 | 1008.4 |
| 20260505221559 | 25 | 238 | 4.8 | 17.7 | 0.00 | 0.03 | 0.03 | 39 | 1008.5 |
| 20260505220104 | 25 | 166 | 3.2 | 14.5 | 0.00 | 0.03 | 0.03 | 38 | 1008.5 |
| 20260505214559 | 26 | 246 | 8.0 | 24.1 | 0.00 | 0.03 | 0.03 | 37 | 1008.6 |
| 20260505213100 | 26 | 311 | 3.2 | 14.5 | 0.00 | 0.03 | 0.03 | 38 | 1008.3 |
| 20260505211605 | 26 | 243 | 9.7 | 29.0 | 0.00 | 0.03 | 0.03 | 35 | 1008.0 |
| 20260505210106 | 26 | 227 | 11.3 | 27.4 | 0.00 | 0.03 | 0.03 | 35 | 1008.1 |
| 20260505204603 | 27 | 202 | 8.0 | 27.4 | 0.00 | 0.03 | 0.03 | 36 | 1008.2 |
| 20260505203102 | 26 | 334 | 6.4 | 29.0 | 0.00 | 0.03 | 0.03 | 36 | 1008.3 |
| 20260505201551 | 27 | 297 | 8.0 | 29.0 | 0.00 | 0.03 | 0.03 | 34 | 1008.2 |
| 20260505200056 | 27 | 279 | 11.3 | 29.0 | 0.00 | 0.03 | 0.03 | 38 | 1008.2 |
| 20260505194549 | 27 | 170 | 9.7 | 32.2 | 0.00 | 0.03 | 0.03 | 34 | 1008.2 |
| 20260505193100 | 26 | 209 | 8.0 | 30.6 | 0.00 | 0.03 | 0.03 | 39 | 1008.2 |